This is the latest recevied weather packets stored in our database for station/object vk4zu-13. If no packets are shown the sender has not sent any weather packets the latest 10 day(s).
| Time | Temp. | Humidity | Pressure | Rain* | Wind** | Luminosity | Snow |
|---|---|---|---|---|---|---|---|
| 1777347119 | 24.44° C | 64% | 1021.6 hPa | 0 mm | - | 322 W/m² | - |
| 1777347050 | 24.44° C | 63% | 1021.5 hPa | 0 mm | - | 334 W/m² | - |
| 1777346982 | 24.44° C | 66% | 1021.6 hPa | 0 mm | - | 373 W/m² | - |
| 1777346910 | 24.44° C | 66% | 1021.5 hPa | 0 mm | - | 366 W/m² | - |
| 1777346845 | 24.44° C | 68% | 1021.5 hPa | 0 mm | - | 346 W/m² | - |
| 1777346771 | 23.89° C | 66% | 1021.5 hPa | 0 mm | - | 332 W/m² | - |
| 1777346708 | 23.89° C | 66% | 1021.5 hPa | 0 mm | - | 309 W/m² | - |
| 1777346645 | 23.89° C | 65% | 1021.5 hPa | 0 mm | - | 279 W/m² | - |
| 1777346586 | 23.89° C | 66% | 1021.5 hPa | 0 mm | - | 230 W/m² | - |
| 1777346521 | 23.89° C | 67% | 1021.6 hPa | 0 mm | - | 213 W/m² | - |
| 1777346459 | 23.89° C | 66% | 1021.6 hPa | 0 mm | - | 204 W/m² | - |
| 1777346339 | 24.44° C | 65% | 1021.5 hPa | 0 mm | - | 197 W/m² | - |
| 1777346275 | 24.44° C | 66% | 1021.5 hPa | 0 mm | - | 186 W/m² | - |
| 1777346215 | 24.44° C | 63% | 1021.6 hPa | 0 mm | - | 185 W/m² | - |
| 1777346143 | 24.44° C | 65% | 1021.7 hPa | 0 mm | - | 221 W/m² | - |
| 1777346074 | 24.44° C | 64% | 1021.6 hPa | 0 mm | - | 246 W/m² | - |
| 1777346005 | 25° C | 64% | 1021.6 hPa | 0 mm | - | 269 W/m² | - |
| 1777345976 | 25° C | 62% | 1021.6 hPa | 0 mm | - | 311 W/m² | - |
| 1777345866 | 25° C | 63% | 1021.6 hPa | 0 mm | - | 299 W/m² | - |
| 1777345798 | 25° C | 64% | 1021.6 hPa | 0 mm | - | 322 W/m² | - |
| 1777345734 | 25° C | 64% | 1021.6 hPa | 0 mm | - | 322 W/m² | - |
| 1777345662 | 25° C | 64% | 1021.6 hPa | 0 mm | - | 322 W/m² | - |
| 1777345598 | 25° C | 64% | 1021.6 hPa | 0 mm | - | 487 W/m² | - |
| 1777345558 | 25° C | 63% | 1021.7 hPa | 0 mm | - | 487 W/m² | - |
| 1777345348 | 24.44° C | 65% | 1021.6 hPa | 0 mm | - | 904 W/m² | - |
* Rain latest hour (hover to see other rain measurements)
** Current wind speed in m/s (hover to see current wind gust speed)